{"data":{"norad_id":56397,"intl_designator":"2023-061Z","name":"STARLINK-6271","alt_names":[],"object_type":"PAYLOAD","status":"ACTIVE","operator":null,"country":"US","launch_date":"2023-05-04","launch_site_code":"AFETR","launch_vehicle":null,"mission":null,"orbit_class":"UNKNOWN","rcs_meters":null,"size_class":null,"mass_kg":null,"dimensions":null,"purposes":["comms"],"wikipedia_slug":null,"has_3d_model":false,"image_url":null,"decayed_at":null,"tle_current":{"epoch":"2026-09-19T23:16:44.135328Z","epoch_age_seconds":157722,"freshness":"FRESH","line1":"1 56397U 23061Z   26262.96995527 -.00000264  00000+0 -82662-7 0  9996","line2":"2 56397  43.0001 170.1540 0000924 235.3279 124.7486 15.27573981186582","mean_motion":15.27573981,"eccentricity":9.24e-5,"inclination_deg":43.0001,"raan_deg":170.154,"arg_perigee_deg":235.3279,"mean_anomaly_deg":124.7486,"bstar":-8.2662e-8,"rev_number":18658,"period_min":94.267120146766,"perigee_km":482.43314388955,"apogee_km":483.70109441077,"semimajor_km":6861.2041191502,"source":"CELESTRAK","updated_at":"2026-09-21T09:00:33.434644Z"}}}